TOM910 EGPH-EGKK

Flight info

Callsign TOM910
Flight time 1h 8m
Altitude 35000
Route GOSAM P600 FENIK L612 NAVSO DCT ADZOP DCT EGTOC DCT KEPAD L151 DISIT
Aircraft B738/M-SDE2E3FGHIRWXY/LB1

Departure

Time 2026-04-20 15:27
Airport Edinburgh Airport (EGPH)

Arrival

Time 2026-04-20 16:35
Airport London Gatwick Airport (EGKK)
Time Latitude Longitude Altitude Speed Heading
2026-04-20 15:05 55.94851 -3.35869 113 ft 0 kts 208°
2026-04-20 15:17 55.94853 -3.35866 115 ft 3 kts 212°
2026-04-20 15:17 55.94877 -3.35844 111 ft 4 kts 208°
2026-04-20 15:17 55.94897 -3.35818 111 ft 4 kts 237°
2026-04-20 15:18 55.94904 -3.35777 113 ft 4 kts 282°
2026-04-20 15:18 55.94900 -3.35752 112 ft 0 kts 298°
2026-04-20 15:21 55.94908 -3.35778 113 ft 7 kts 299°
2026-04-20 15:21 55.94960 -3.35857 113 ft 13 kts 349°
2026-04-20 15:21 55.95054 -3.35871 113 ft 16 kts 308°
2026-04-20 15:22 55.95108 -3.36081 114 ft 21 kts 289°
2026-04-20 15:22 55.95116 -3.36330 114 ft 21 kts 241°
2026-04-20 15:22 55.95043 -3.36548 114 ft 20 kts 239°
2026-04-20 15:22 55.94971 -3.36764 113 ft 20 kts 239°
2026-04-20 15:23 55.94901 -3.36971 114 ft 19 kts 238°
2026-04-20 15:23 55.94833 -3.37174 115 ft 19 kts 238°
2026-04-20 15:23 55.94760 -3.37387 113 ft 20 kts 238°
2026-04-20 15:23 55.94688 -3.37599 112 ft 20 kts 239°
2026-04-20 15:24 55.94620 -3.37802 115 ft 19 kts 239°
2026-04-20 15:24 55.94552 -3.38000 114 ft 18 kts 238°
2026-04-20 15:24 55.94486 -3.38191 114 ft 18 kts 238°
2026-04-20 15:24 55.94422 -3.38374 115 ft 17 kts 238°
2026-04-20 15:25 55.94362 -3.38554 115 ft 16 kts 239°
2026-04-20 15:25 55.94305 -3.38726 114 ft 15 kts 239°
2026-04-20 15:25 55.94299 -3.38875 112 ft 7 kts 327°
2026-04-20 15:25 55.94338 -3.38921 113 ft 8 kts 328°
2026-04-20 15:26 55.94415 -3.38980 113 ft 15 kts
2026-04-20 15:26 55.94468 -3.38830 110 ft 16 kts 63°
2026-04-20 15:26 55.94644 -3.38301 111 ft 93 kts 58°
2026-04-20 15:26 55.95121 -3.36897 198 ft 164 kts 59°
2026-04-20 15:27 55.95747 -3.35162 1347 ft 160 kts 58°
2026-04-20 15:27 55.96365 -3.33521 2599 ft 163 kts 51°
2026-04-20 15:27 55.97261 -3.32061 3146 ft 194 kts 43°
2026-04-20 15:27 55.98370 -3.30339 3470 ft 228 kts 43°
2026-04-20 15:28 55.99695 -3.28464 3937 ft 254 kts 29°
2026-04-20 15:28 56.01451 -3.27981 4861 ft 264 kts 349°
2026-04-20 15:28 56.03083 -3.29462 5742 ft 269 kts 313°
2026-04-20 15:28 56.03949 -3.32392 6714 ft 271 kts 278°
2026-04-20 15:29 56.03742 -3.35704 7600 ft 273 kts 245°
2026-04-20 15:29 56.02928 -3.38758 8436 ft 280 kts 244°
2026-04-20 15:29 56.02216 -3.42061 9301 ft 286 kts 250°
2026-04-20 15:29 56.01609 -3.45474 10273 ft 290 kts 252°
2026-04-20 15:30 56.01046 -3.49005 10907 ft 303 kts 254°
2026-04-20 15:30 56.00489 -3.52759 11129 ft 329 kts 254°
2026-04-20 15:30 55.99899 -3.56864 11459 ft 351 kts 255°
2026-04-20 15:30 55.99285 -3.61184 11999 ft 364 kts 255°
2026-04-20 15:31 55.98658 -3.65567 12899 ft 366 kts 255°
2026-04-20 15:31 55.98231 -3.68554 13485 ft 367 kts 255°
2026-04-20 15:31 55.97596 -3.72980 14310 ft 371 kts 254°
2026-04-20 15:31 55.96957 -3.77414 14992 ft 375 kts 254°
2026-04-20 15:32 55.96302 -3.81950 15707 ft 378 kts 255°
2026-04-20 15:32 55.95643 -3.86506 16470 ft 381 kts 255°
2026-04-20 15:32 55.94979 -3.91080 17224 ft 384 kts 254°
2026-04-20 15:32 55.94301 -3.95726 17871 ft 389 kts 254°
2026-04-20 15:33 55.93354 -4.00255 18563 ft 391 kts 240°
2026-04-20 15:33 55.91735 -4.04146 19258 ft 391 kts 226°
2026-04-20 15:33 55.89659 -4.07277 19911 ft 392 kts 214°
2026-04-20 15:33 55.87378 -4.10000 20537 ft 395 kts 213°
2026-04-20 15:34 55.85071 -4.12694 21115 ft 399 kts 213°
2026-04-20 15:34 55.82742 -4.15454 21698 ft 402 kts 214°
2026-04-20 15:34 55.80444 -4.18218 22320 ft 404 kts 214°
2026-04-20 15:34 55.78102 -4.21059 22900 ft 407 kts 215°
2026-04-20 15:35 55.75750 -4.23935 23462 ft 410 kts 213°
2026-04-20 15:35 55.73151 -4.26027 24010 ft 415 kts 194°
2026-04-20 15:35 55.70265 -4.26395 24371 ft 422 kts 176°
2026-04-20 15:35 55.67401 -4.25268 24576 ft 433 kts 158°
2026-04-20 15:36 55.64712 -4.22809 25025 ft 436 kts 151°
2026-04-20 15:36 55.62078 -4.20144 25482 ft 438 kts 151°
2026-04-20 15:36 55.59417 -4.17445 25775 ft 443 kts 151°
2026-04-20 15:36 55.56722 -4.14751 26134 ft 447 kts 151°
2026-04-20 15:37 55.53997 -4.12071 26572 ft 449 kts 152°
2026-04-20 15:37 55.51256 -4.09401 26969 ft 451 kts 152°
2026-04-20 15:37 55.48496 -4.06723 27269 ft 455 kts 152°
2026-04-20 15:37 55.45699 -4.04008 27515 ft 460 kts 151°
2026-04-20 15:38 55.42879 -4.01270 27857 ft 463 kts 151°
2026-04-20 15:38 55.40054 -3.98529 28244 ft 465 kts 151°
2026-04-20 15:38 55.37240 -3.95803 28601 ft 467 kts 151°
2026-04-20 15:38 55.34378 -3.93034 28936 ft 470 kts 151°
2026-04-20 15:39 55.31494 -3.90249 29250 ft 473 kts 151°
2026-04-20 15:39 55.28605 -3.87462 29552 ft 476 kts 151°
2026-04-20 15:39 55.25691 -3.84658 29936 ft 477 kts 151°
2026-04-20 15:39 55.22780 -3.81904 30478 ft 473 kts 153°
2026-04-20 15:40 55.19746 -3.79692 30766 ft 474 kts 162°
2026-04-20 15:40 55.16592 -3.77944 31021 ft 476 kts 163°
2026-04-20 15:40 55.13407 -3.76279 31320 ft 477 kts 164°
2026-04-20 15:40 55.10264 -3.74654 31679 ft 476 kts 164°
2026-04-20 15:41 55.07080 -3.72989 32036 ft 475 kts 163°
2026-04-20 15:41 55.03904 -3.71301 32349 ft 476 kts 163°
2026-04-20 15:41 55.00733 -3.69595 32645 ft 476 kts 163°
2026-04-20 15:41 54.97559 -3.67874 32961 ft 476 kts 163°
2026-04-20 15:42 54.94430 -3.66171 33280 ft 476 kts 163°
2026-04-20 15:42 54.91251 -3.64442 33502 ft 479 kts 163°
2026-04-20 15:42 54.88071 -3.62715 33748 ft 480 kts 163°
2026-04-20 15:42 54.84884 -3.60988 34093 ft 479 kts 163°
2026-04-20 15:43 54.81702 -3.59268 34426 ft 478 kts 163°
2026-04-20 15:43 54.78517 -3.57550 34684 ft 478 kts 163°
2026-04-20 15:43 54.75337 -3.55838 34922 ft 478 kts 163°
2026-04-20 15:43 54.72161 -3.54130 35179 ft 478 kts 163°
2026-04-20 15:44 54.69020 -3.52446 35314 ft 480 kts 163°
2026-04-20 15:44 54.62605 -3.49013 35315 ft 481 kts 163°
2026-04-20 15:45 54.56239 -3.45616 35312 ft 477 kts 163°
2026-04-20 15:45 54.49899 -3.42244 35314 ft 475 kts 163°
2026-04-20 15:46 54.43613 -3.38913 35303 ft 474 kts 164°
2026-04-20 15:46 54.37310 -3.35583 35314 ft 474 kts 164°
2026-04-20 15:47 54.30996 -3.32257 35317 ft 475 kts 164°
2026-04-20 15:47 54.24656 -3.28927 35310 ft 477 kts 164°
2026-04-20 15:48 54.18270 -3.25692 35297 ft 478 kts 169°
2026-04-20 15:48 54.11737 -3.24416 35316 ft 477 kts 178°
2026-04-20 15:49 54.05089 -3.23521 35309 ft 479 kts 176°
2026-04-20 15:49 53.98498 -3.21854 35293 ft 482 kts 165°
2026-04-20 15:50 53.92223 -3.17882 35292 ft 484 kts 160°
2026-04-20 15:50 53.85946 -3.13701 35309 ft 484 kts 160°
2026-04-20 15:51 53.79633 -3.09583 35302 ft 485 kts 160°
2026-04-20 15:51 53.73333 -3.05542 35291 ft 484 kts 161°
2026-04-20 15:52 53.67055 -3.01542 35285 ft 484 kts 161°
2026-04-20 15:52 53.60756 -2.97541 35294 ft 483 kts 161°
2026-04-20 15:53 53.51309 -2.91559 35293 ft 483 kts 161°
2026-04-20 15:53 53.45043 -2.87605 35297 ft 483 kts 161°
2026-04-20 15:54 53.38755 -2.83651 35266 ft 483 kts 161°
2026-04-20 15:54 53.32454 -2.79701 35292 ft 482 kts 161°
2026-04-20 15:55 53.26198 -2.75791 35290 ft 482 kts 161°
2026-04-20 15:55 53.19899 -2.71867 35276 ft 483 kts 162°
2026-04-20 15:56 53.13594 -2.67952 35283 ft 483 kts 162°
2026-04-20 15:56 53.07328 -2.64073 35276 ft 483 kts 162°
2026-04-20 15:57 53.01017 -2.60178 35275 ft 484 kts 162°
2026-04-20 15:57 52.94689 -2.56284 35261 ft 484 kts 162°
2026-04-20 15:58 52.88362 -2.52402 35288 ft 485 kts 162°
2026-04-20 15:58 52.82060 -2.48509 35274 ft 487 kts 159°
2026-04-20 15:59 52.76157 -2.42846 34843 ft 497 kts 147°
2026-04-20 15:59 52.73316 -2.39590 34222 ft 497 kts 147°
2026-04-20 15:59 52.70461 -2.36347 33447 ft 497 kts 148°
2026-04-20 16:00 52.67588 -2.33171 32682 ft 497 kts 149°
2026-04-20 16:00 52.64706 -2.30029 31936 ft 497 kts 149°
2026-04-20 16:00 52.61822 -2.26875 31175 ft 498 kts 149°
2026-04-20 16:00 52.58968 -2.23743 30412 ft 500 kts 150°
2026-04-20 16:01 52.56072 -2.20563 29686 ft 498 kts 150°
2026-04-20 16:01 52.53201 -2.17410 29086 ft 492 kts 150°
2026-04-20 16:01 52.50370 -2.14308 28479 ft 486 kts 150°
2026-04-20 16:01 52.47571 -2.11247 27916 ft 481 kts 151°
2026-04-20 16:02 52.44796 -2.08220 27351 ft 477 kts 151°
2026-04-20 16:02 52.42043 -2.05224 26799 ft 473 kts 151°
2026-04-20 16:02 52.39307 -2.02250 26245 ft 470 kts 151°
2026-04-20 16:02 52.36593 -1.99300 25703 ft 466 kts 151°
2026-04-20 16:03 52.33903 -1.96383 25190 ft 462 kts 150°
2026-04-20 16:03 52.31232 -1.93490 24656 ft 459 kts 150°
2026-04-20 16:03 52.28611 -1.90656 24128 ft 455 kts 150°
2026-04-20 16:03 52.25968 -1.87805 23500 ft 452 kts 150°
2026-04-20 16:04 52.23353 -1.85003 22926 ft 448 kts 150°
2026-04-20 16:04 52.20758 -1.82233 22392 ft 443 kts 150°
2026-04-20 16:04 52.18188 -1.79495 21871 ft 438 kts 150°
2026-04-20 16:04 52.15644 -1.76784 21338 ft 434 kts 149°
2026-04-20 16:05 52.13154 -1.74135 20819 ft 430 kts 149°
2026-04-20 16:05 52.10664 -1.71489 20295 ft 426 kts 149°
2026-04-20 16:05 52.08193 -1.68865 19913 ft 419 kts 149°
2026-04-20 16:05 52.05763 -1.66286 19574 ft 413 kts 148°
2026-04-20 16:06 52.03364 -1.63743 19212 ft 413 kts 148°
2026-04-20 16:06 52.00968 -1.61207 18849 ft 417 kts 148°
2026-04-20 16:06 51.98539 -1.58639 18482 ft 415 kts 148°
2026-04-20 16:06 51.96133 -1.56097 18067 ft 410 kts 148°
2026-04-20 16:07 51.93749 -1.53579 17694 ft 405 kts 148°
2026-04-20 16:07 51.91402 -1.51105 17356 ft 399 kts 148°
2026-04-20 16:07 51.89075 -1.48655 16998 ft 396 kts 148°
2026-04-20 16:07 51.86774 -1.46236 16656 ft 393 kts 148°
2026-04-20 16:08 51.84500 -1.43848 16328 ft 391 kts 148°
2026-04-20 16:08 51.82214 -1.41450 15983 ft 391 kts 148°
2026-04-20 16:08 51.79940 -1.39068 15626 ft 387 kts 148°
2026-04-20 16:08 51.77676 -1.36699 15298 ft 387 kts 148°
2026-04-20 16:09 51.75451 -1.34376 15088 ft 383 kts 148°
2026-04-20 16:09 51.73185 -1.32011 14893 ft 380 kts 148°
2026-04-20 16:09 51.70977 -1.29710 14694 ft 378 kts 148°
2026-04-20 16:09 51.68798 -1.27441 14499 ft 376 kts 148°
2026-04-20 16:10 51.66599 -1.25153 14309 ft 375 kts 148°
2026-04-20 16:10 51.64407 -1.22874 14121 ft 374 kts 148°
2026-04-20 16:10 51.62221 -1.20605 13905 ft 374 kts 148°
2026-04-20 16:10 51.60033 -1.18336 13692 ft 373 kts 148°
2026-04-20 16:11 51.57875 -1.16101 13494 ft 373 kts 148°
2026-04-20 16:11 51.55666 -1.13815 13290 ft 372 kts 148°
2026-04-20 16:11 51.53492 -1.11569 13100 ft 371 kts 148°
2026-04-20 16:11 51.51322 -1.09328 12909 ft 371 kts 148°
2026-04-20 16:12 51.49178 -1.07116 12708 ft 370 kts 148°
2026-04-20 16:12 51.47017 -1.04890 12523 ft 369 kts 148°
2026-04-20 16:12 51.44861 -1.02672 12321 ft 368 kts 148°
2026-04-20 16:12 51.42710 -1.00462 12121 ft 366 kts 147°
2026-04-20 16:13 51.40569 -0.98264 11937 ft 364 kts 147°
2026-04-20 16:13 51.38437 -0.96078 11748 ft 363 kts 147°
2026-04-20 16:13 51.36318 -0.93909 11562 ft 361 kts 147°
2026-04-20 16:13 51.34198 -0.91739 11361 ft 359 kts 147°
2026-04-20 16:14 51.32190 -0.89514 11086 ft 349 kts 139°
2026-04-20 16:14 51.30487 -0.86760 10405 ft 346 kts 131°
2026-04-20 16:14 51.28931 -0.83981 10236 ft 325 kts 130°
2026-04-20 16:14 51.27470 -0.81360 10102 ft 306 kts 130°
2026-04-20 16:15 51.26102 -0.78896 9977 ft 288 kts 130°
2026-04-20 16:15 51.24788 -0.76594 9828 ft 274 kts 137°
2026-04-20 16:15 51.23117 -0.75355 9620 ft 263 kts 174°
2026-04-20 16:15 51.21311 -0.75210 9319 ft 259 kts 175°
2026-04-20 16:16 51.19479 -0.74734 8509 ft 279 kts 165°
2026-04-20 16:16 51.17613 -0.73775 7923 ft 288 kts 156°
2026-04-20 16:16 51.15781 -0.72481 7636 ft 285 kts 151°
2026-04-20 16:16 51.14042 -0.71026 7381 ft 280 kts 148°
2026-04-20 16:17 51.12359 -0.69463 7293 ft 278 kts 146°
2026-04-20 16:17 51.11258 -0.68390 7271 ft 280 kts 145°
2026-04-20 16:17 51.09075 -0.66213 7262 ft 279 kts 145°
2026-04-20 16:17 51.07435 -0.64562 7266 ft 278 kts 145°
2026-04-20 16:18 51.05823 -0.62861 7236 ft 276 kts 137°
2026-04-20 16:18 51.05014 -0.61332 7235 ft 270 kts 117°
2026-04-20 16:18 51.04179 -0.58696 7258 ft 269 kts 114°
2026-04-20 16:18 51.03350 -0.56008 7262 ft 272 kts 114°
2026-04-20 16:19 51.02508 -0.53300 7246 ft 272 kts 113°
2026-04-20 16:19 51.01667 -0.50609 7251 ft 270 kts 113°
2026-04-20 16:19 51.00827 -0.47929 7234 ft 270 kts 114°
2026-04-20 16:19 50.99999 -0.45293 7236 ft 261 kts 114°
2026-04-20 16:20 50.99203 -0.42771 7226 ft 249 kts 113°
2026-04-20 16:20 50.98447 -0.40370 7229 ft 240 kts 115°
2026-04-20 16:20 50.97704 -0.38017 7230 ft 237 kts 113°
2026-04-20 16:20 50.96963 -0.35661 7244 ft 246 kts 113°
2026-04-20 16:21 50.96184 -0.33184 7256 ft 259 kts 113°
2026-04-20 16:21 50.95373 -0.30615 7253 ft 261 kts 115°
2026-04-20 16:21 50.94557 -0.28039 7241 ft 261 kts 114°
2026-04-20 16:21 50.93740 -0.25464 7242 ft 260 kts 114°
2026-04-20 16:22 50.92926 -0.22897 7252 ft 260 kts 113°
2026-04-20 16:22 50.92112 -0.20331 7245 ft 260 kts 114°
2026-04-20 16:22 50.91307 -0.17794 7233 ft 260 kts 113°
2026-04-20 16:22 50.90493 -0.15235 7229 ft 261 kts 115°
2026-04-20 16:23 50.89800 -0.12610 7210 ft 256 kts 98°
2026-04-20 16:23 50.89896 -0.09900 7177 ft 240 kts 69°
2026-04-20 16:23 50.90787 -0.07792 6923 ft 229 kts 38°
2026-04-20 16:23 50.92216 -0.06792 6517 ft 225 kts
2026-04-20 16:24 50.93736 -0.07171 5974 ft 228 kts 336°
2026-04-20 16:24 50.95028 -0.08737 5368 ft 234 kts 319°
2026-04-20 16:24 50.96073 -0.10675 4812 ft 237 kts 307°
2026-04-20 16:24 50.96926 -0.12927 4278 ft 238 kts 300°
2026-04-20 16:25 50.97589 -0.15341 4082 ft 242 kts 293°
2026-04-20 16:25 50.98133 -0.17913 4054 ft 245 kts 289°
2026-04-20 16:25 50.98607 -0.20453 3999 ft 240 kts 288°
2026-04-20 16:25 50.99051 -0.22977 4013 ft 237 kts 287°
2026-04-20 16:26 50.99473 -0.25521 4006 ft 238 kts 286°
2026-04-20 16:26 50.99883 -0.28081 4028 ft 238 kts 285°
2026-04-20 16:26 51.00280 -0.30609 3796 ft 235 kts 285°
2026-04-20 16:26 51.00667 -0.33104 3324 ft 233 kts 286°
2026-04-20 16:27 51.01059 -0.35568 3112 ft 231 kts 286°
2026-04-20 16:27 51.01464 -0.38030 3013 ft 231 kts 287°
2026-04-20 16:27 51.01872 -0.40504 3003 ft 234 kts 287°
2026-04-20 16:27 51.02291 -0.43042 3016 ft 240 kts 287°
2026-04-20 16:28 51.02710 -0.45613 2987 ft 240 kts 287°
2026-04-20 16:28 51.03125 -0.48156 2996 ft 236 kts 286°
2026-04-20 16:28 51.03584 -0.50664 2975 ft 236 kts 295°
2026-04-20 16:28 51.04514 -0.52681 2987 ft 216 kts 324°
2026-04-20 16:29 51.05756 -0.53719 2985 ft 192 kts 349°
2026-04-20 16:29 51.07036 -0.53892 3005 ft 182 kts
2026-04-20 16:29 51.08241 -0.53424 3011 ft 176 kts 26°
2026-04-20 16:29 51.09261 -0.52389 2990 ft 172 kts 43°
2026-04-20 16:30 51.10062 -0.51005 2977 ft 168 kts 59°
2026-04-20 16:30 51.10488 -0.49308 3033 ft 169 kts 71°
2026-04-20 16:30 51.10849 -0.47480 2998 ft 172 kts 74°
2026-04-20 16:30 51.11139 -0.45675 2994 ft 162 kts 76°
2026-04-20 16:31 51.11381 -0.43984 2987 ft 155 kts 76°
2026-04-20 16:31 51.11611 -0.42330 2958 ft 156 kts 77°
2026-04-20 16:31 51.11843 -0.40638 2800 ft 158 kts 77°
2026-04-20 16:31 51.12072 -0.38956 2620 ft 153 kts 76°
2026-04-20 16:32 51.12299 -0.37301 2400 ft 152 kts 77°
2026-04-20 16:32 51.12524 -0.35665 2187 ft 151 kts 77°
2026-04-20 16:32 51.12745 -0.34052 1982 ft 148 kts 77°
2026-04-20 16:32 51.12969 -0.32421 1797 ft 152 kts 76°
2026-04-20 16:33 51.13193 -0.30798 1578 ft 146 kts 76°
2026-04-20 16:33 51.13394 -0.29329 1400 ft 132 kts 76°
2026-04-20 16:33 51.13584 -0.27948 1214 ft 124 kts 75°
2026-04-20 16:33 51.13773 -0.26589 1039 ft 126 kts 76°
2026-04-20 16:34 51.13960 -0.25218 845 ft 125 kts 76°
2026-04-20 16:34 51.14150 -0.23851 676 ft 127 kts 71°
2026-04-20 16:34 51.14348 -0.22491 530 ft 124 kts 78°
2026-04-20 16:34 51.14520 -0.21173 301 ft 119 kts 77°
2026-04-20 16:35 51.14695 -0.19969 208 ft 98 kts 78°
2026-04-20 16:35 51.14806 -0.19125 210 ft 71 kts 77°
2026-04-20 16:35 51.14919 -0.18569 209 ft 34 kts 49°
2026-04-20 16:35 51.15002 -0.18409 204 ft 6 kts 56°
2026-04-20 16:36 51.15025 -0.18355 210 ft 6 kts 53°
2026-04-20 16:36 51.15032 -0.18339 212 ft 1 kts 52°
2026-04-20 16:36 51.15038 -0.18329 209 ft 1 kts 52°
2026-04-20 16:36 51.15045 -0.18313 206 ft 2 kts 51°
2026-04-20 16:37 51.15066 -0.18272 207 ft 9 kts 50°
2026-04-20 16:37 51.15123 -0.18201 206 ft 11 kts 15°
2026-04-20 16:37 51.15193 -0.18173 208 ft 10 kts 47°
2026-04-20 16:37 51.15197 -0.18165 206 ft 0 kts 52°
2026-04-20 16:38 51.15201 -0.18156 215 ft 4 kts 56°
2026-04-20 16:39 51.15226 -0.18112 213 ft 6 kts 29°
2026-04-20 16:39 51.15269 -0.18109 204 ft 6 kts 352°
2026-04-20 16:39 51.15311 -0.18122 204 ft 6 kts 348°
2026-04-20 16:39 51.15352 -0.18136 204 ft 6 kts 348°
2026-04-20 16:40 51.15381 -0.18146 207 ft 0 kts 348°
2026-04-20 16:42 51.15383 -0.18146 207 ft 1 kts 348°
2026-04-20 16:42 51.15404 -0.18154 204 ft 5 kts 347°
2026-04-20 16:42 51.15451 -0.18177 204 ft 9 kts 340°
2026-04-20 16:43 51.15520 -0.18205 207 ft 12 kts 348°
2026-04-20 16:43 51.15607 -0.18233 215 ft 13 kts 348°
2026-04-20 16:43 51.15672 -0.18159 207 ft 13 kts 75°
2026-04-20 16:43 51.15715 -0.18049 204 ft 13 kts
2026-04-20 16:44 51.15801 -0.18069 209 ft 12 kts 347°
2026-04-20 16:44 51.15884 -0.18097 209 ft 12 kts 348°
2026-04-20 16:44 51.15964 -0.18125 207 ft 12 kts 346°
2026-04-20 16:44 51.16042 -0.18153 204 ft 11 kts 348°
2026-04-20 16:45 51.16110 -0.18174 204 ft 5 kts 348°
2026-04-20 16:45 51.16137 -0.18139 206 ft 6 kts 65°
2026-04-20 16:45 51.16147 -0.18081 204 ft 5 kts 77°
2026-04-20 16:45 51.16151 -0.18053 204 ft 2 kts 77°
2026-04-20 16:46 51.16151 -0.18051 204 ft 0 kts 77°